Time,TemperatureF,DewpointF,PressureIn,WindDirection,WindDirectionDegrees,WindSpeedMPH,WindSpeedGustMPH,Humidity,HourlyPrecipIn,Conditions,Clouds,dailyrainin,SoftwareType,DateUTC
2014-12-17 00:02:00,61.0,48.7,30.12,North,-999,0.0,0.0,64,0.00,,,-99.99,FreeWX-Wi 1.01,2014-12-17 05:02:00,
2014-12-17 00:07:00,61.2,48.9,30.12,North,-999,0.0,0.0,64,0.00,,,-99.99,FreeWX-Wi 1.01,2014-12-17 05:07:00,
2014-12-17 00:12:00,61.0,48.7,30.12,North,-999,0.0,0.0,64,0.00,,,-99.99,FreeWX-Wi 1.01,2014-12-17 05:12:00,
2014-12-17 00:17:00,61.0,49.1,30.12,North,-999,0.0,0.0,65,0.00,,,-99.99,FreeWX-Wi 1.01,2014-12-17 05:17:00,
2014-12-17 00:22:00,61.0,49.1,30.12,North,-999,0.0,0.0,65,0.00,,,-99.99,FreeWX-Wi 1.01,2014-12-17 05:22:00,
2014-12-17 00:27:00,61.0,49.1,30.12,North,-999,0.0,0.0,65,0.00,,,-99.99,FreeWX-Wi 1.01,2014-12-17 05:27:00,
2014-12-17 00:32:00,60.8,48.9,30.12,North,-999,0.0,0.0,65,0.00,,,-99.99,FreeWX-Wi 1.01,2014-12-17 05:32:00,
2014-12-17 00:37:00,61.0,49.1,30.12,North,-999,0.0,3.6,65,0.00,,,-99.99,FreeWX-Wi 1.01,2014-12-17 05:37:00,
2014-12-17 00:42:00,61.0,49.1,30.12,North,-999,0.0,2.2,65,0.00,,,-99.99,FreeWX-Wi 1.01,2014-12-17 05:42:00,
2014-12-17 00:47:00,61.0,49.5,30.12,North,-999,0.0,3.1,66,0.00,,,-99.99,FreeWX-Wi 1.01,2014-12-17 05:47:00,
2014-12-17 00:52:00,61.0,49.5,30.12,North,-999,0.0,4.0,66,0.00,,,-99.99,FreeWX-Wi 1.01,2014-12-17 05:52:00,
2014-12-17 00:57:00,61.0,49.5,30.12,North,-999,0.0,4.0,66,0.00,,,-99.99,FreeWX-Wi 1.01,2014-12-17 05:57:00,
2014-12-17 01:02:00,61.0,49.5,30.12,North,-999,0.0,0.0,66,0.00,,,-99.99,FreeWX-Wi 1.01,2014-12-17 06:02:00,
2014-12-17 01:07:00,61.0,49.5,30.12,North,-999,0.0,0.0,66,0.00,,,-99.99,FreeWX-Wi 1.01,2014-12-17 06:07:00,
2014-12-17 01:12:00,61.0,49.5,30.12,North,-999,0.0,0.0,66,0.00,,,-99.99,FreeWX-Wi 1.01,2014-12-17 06:12:00,
2014-12-17 01:17:00,61.0,49.5,30.12,North,-999,0.0,0.0,66,0.00,,,-99.99,FreeWX-Wi 1.01,2014-12-17 06:17:00,
2014-12-17 01:22:00,60.8,49.8,30.12,North,-999,0.0,0.0,67,0.00,,,-99.99,FreeWX-Wi 1.01,2014-12-17 06:22:00,
2014-12-17 01:27:00,60.6,49.6,30.12,North,-999,0.0,0.0,67,0.00,,,-99.99,FreeWX-Wi 1.01,2014-12-17 06:27:00,
2014-12-17 01:32:00,60.6,49.6,30.12,North,-999,0.0,0.0,67,0.00,,,-99.99,FreeWX-Wi 1.01,2014-12-17 06:32:00,
2014-12-17 01:37:00,60.4,49.5,30.12,North,-999,0.0,0.0,67,0.00,,,-99.99,FreeWX-Wi 1.01,2014-12-17 06:37:00,
2014-12-17 01:42:00,60.4,49.5,30.12,North,-999,0.0,2.7,67,0.00,,,-99.99,FreeWX-Wi 1.01,2014-12-17 06:42:00,
2014-12-17 01:47:00,60.4,49.8,30.12,North,-999,0.0,2.7,68,0.00,,,-99.99,FreeWX-Wi 1.01,2014-12-17 06:47:00,
2014-12-17 01:52:00,60.4,49.8,30.12,North,-999,0.0,4.0,68,0.00,,,-99.99,FreeWX-Wi 1.01,2014-12-17 06:52:00,
2014-12-17 01:57:00,60.3,49.6,30.12,North,-999,0.0,0.0,68,0.00,,,-99.99,FreeWX-Wi 1.01,2014-12-17 06:57:00,
2014-12-17 02:02:00,60.3,49.6,30.12,North,-999,0.0,0.0,68,0.00,,,-99.99,FreeWX-Wi 1.01,2014-12-17 07:02:00,
2014-12-17 02:07:00,60.1,49.5,30.12,North,-999,0.0,0.0,68,0.00,,,-99.99,FreeWX-Wi 1.01,2014-12-17 07:07:00,
2014-12-17 02:12:00,59.9,49.3,30.12,North,-999,0.0,0.0,68,0.00,,,-99.99,FreeWX-Wi 1.01,2014-12-17 07:12:00,
2014-12-17 02:17:00,59.7,49.1,30.12,North,-999,0.0,0.0,68,0.00,,,-99.99,FreeWX-Wi 1.01,2014-12-17 07:17:00,
2014-12-17 02:22:00,59.5,48.9,30.12,North,-999,0.0,0.0,68,0.00,,,-99.99,FreeWX-Wi 1.01,2014-12-17 07:22:00,
2014-12-17 02:27:00,59.5,48.9,30.12,North,-999,0.0,0.0,68,0.00,,,-99.99,FreeWX-Wi 1.01,2014-12-17 07:27:00,
2014-12-17 02:32:00,59.4,48.7,30.12,North,-999,0.0,0.0,68,0.00,,,-99.99,FreeWX-Wi 1.01,2014-12-17 07:32:00,
2014-12-17 02:37:00,59.4,48.7,30.12,North,-999,0.0,0.0,68,0.00,,,-99.99,FreeWX-Wi 1.01,2014-12-17 07:37:00,
2014-12-17 02:42:00,59.2,48.6,30.12,North,-999,0.0,0.0,68,0.00,,,-99.99,FreeWX-Wi 1.01,2014-12-17 07:42:00,
2014-12-17 02:47:00,59.0,48.4,30.12,North,-999,0.0,0.0,68,0.00,,,-99.99,FreeWX-Wi 1.01,2014-12-17 07:47:00,
2014-12-17 02:52:00,58.8,48.7,30.12,North,-999,0.0,0.0,69,0.00,,,-99.99,FreeWX-Wi 1.01,2014-12-17 07:52:00,
2014-12-17 02:57:00,58.6,48.6,30.12,North,-999,0.0,0.0,69,0.00,,,-99.99,FreeWX-Wi 1.01,2014-12-17 07:57:00,
2014-12-17 03:02:00,58.6,48.6,30.12,North,-999,0.0,0.0,69,0.00,,,-99.99,FreeWX-Wi 1.01,2014-12-17 08:02:00,
2014-12-17 03:07:00,58.5,48.4,30.12,North,-999,0.0,0.0,69,0.00,,,-99.99,FreeWX-Wi 1.01,2014-12-17 08:07:00,
2014-12-17 03:12:00,58.5,48.4,30.12,North,-999,0.0,0.0,69,0.00,,,-99.99,FreeWX-Wi 1.01,2014-12-17 08:12:00,
2014-12-17 03:17:00,58.3,48.2,30.12,North,-999,0.0,0.0,69,0.00,,,-99.99,FreeWX-Wi 1.01,2014-12-17 08:17:00,
2014-12-17 03:22:00,58.1,48.0,30.12,North,-999,0.0,0.0,69,0.00,,,-99.99,FreeWX-Wi 1.01,2014-12-17 08:22:00,
2014-12-17 03:27:00,58.1,48.0,30.12,North,-999,0.0,0.0,69,0.00,,,-99.99,FreeWX-Wi 1.01,2014-12-17 08:27:00,
2014-12-17 03:32:00,57.9,47.8,30.12,North,-999,0.0,0.0,69,0.00,,,-99.99,FreeWX-Wi 1.01,2014-12-17 08:32:00,
2014-12-17 03:37:00,57.7,47.7,30.12,North,-999,0.0,0.0,69,0.00,,,-99.99,FreeWX-Wi 1.01,2014-12-17 08:37:00,
2014-12-17 03:42:00,57.6,47.5,30.12,North,-999,0.0,0.0,69,0.00,,,-99.99,FreeWX-Wi 1.01,2014-12-17 08:42:00,
2014-12-17 03:47:00,57.4,47.3,30.12,North,-999,0.0,0.0,69,0.00,,,-99.99,FreeWX-Wi 1.01,2014-12-17 08:47:00,
2014-12-17 03:52:00,57.2,47.1,30.12,North,-999,0.0,0.0,69,0.00,,,-99.99,FreeWX-Wi 1.01,2014-12-17 08:52:00,
2014-12-17 03:57:00,57.0,46.9,30.12,North,-999,0.0,0.0,69,0.00,,,-99.99,FreeWX-Wi 1.01,2014-12-17 08:57:00,
2014-12-17 04:02:00,56.8,46.8,30.12,North,-999,0.0,0.0,69,0.00,,,-99.99,FreeWX-Wi 1.01,2014-12-17 09:02:00,
2014-12-17 04:07:00,56.8,46.8,30.12,North,-999,0.0,0.0,69,0.00,,,-99.99,FreeWX-Wi 1.01,2014-12-17 09:07:00,
2014-12-17 04:12:00,56.7,46.6,30.12,North,-999,0.0,0.0,69,0.00,,,-99.99,FreeWX-Wi 1.01,2014-12-17 09:12:00,
2014-12-17 04:17:00,56.7,46.6,30.12,North,-999,0.0,0.0,69,0.00,,,-99.99,FreeWX-Wi 1.01,2014-12-17 09:17:00,
2014-12-17 04:22:00,56.5,46.4,30.12,North,-999,0.0,0.0,69,0.00,,,-99.99,FreeWX-Wi 1.01,2014-12-17 09:22:00,
2014-12-17 04:27:00,56.3,46.2,30.12,North,-999,0.0,0.0,69,0.00,,,-99.99,FreeWX-Wi 1.01,2014-12-17 09:27:00,
2014-12-17 04:32:00,56.3,46.2,30.12,North,-999,0.0,0.0,69,0.00,,,-99.99,FreeWX-Wi 1.01,2014-12-17 09:32:00,
2014-12-17 04:37:00,56.1,46.0,30.12,North,-999,0.0,0.0,69,0.00,,,-99.99,FreeWX-Wi 1.01,2014-12-17 09:37:00,
2014-12-17 04:42:00,56.1,46.0,30.12,North,-999,0.0,0.0,69,0.00,,,-99.99,FreeWX-Wi 1.01,2014-12-17 09:42:00,
2014-12-17 04:47:00,55.9,45.9,30.12,North,-999,0.0,0.0,69,0.00,,,-99.99,FreeWX-Wi 1.01,2014-12-17 09:47:00,
2014-12-17 04:52:00,55.8,45.7,30.12,North,-999,0.0,0.0,69,0.00,,,-99.99,FreeWX-Wi 1.01,2014-12-17 09:52:00,
2014-12-17 04:57:00,55.6,45.5,30.12,North,-999,0.0,0.0,69,0.00,,,-99.99,FreeWX-Wi 1.01,2014-12-17 09:57:00,
2014-12-17 05:02:00,55.4,45.3,30.12,North,-999,0.0,0.0,69,0.00,,,-99.99,FreeWX-Wi 1.01,2014-12-17 10:02:00,
2014-12-17 05:07:00,55.2,45.1,30.12,North,-999,0.0,0.0,69,0.00,,,-99.99,FreeWX-Wi 1.01,2014-12-17 10:07:00,
2014-12-17 05:12:00,55.0,45.1,30.12,North,-999,0.0,0.0,69,0.00,,,-99.99,FreeWX-Wi 1.01,2014-12-17 10:12:00,
2014-12-17 05:17:00,55.0,45.1,30.12,North,-999,0.0,0.0,69,0.00,,,-99.99,FreeWX-Wi 1.01,2014-12-17 10:17:00,
2014-12-17 05:22:00,54.9,45.0,30.12,North,-999,0.0,0.0,69,0.00,,,-99.99,FreeWX-Wi 1.01,2014-12-17 10:22:00,
2014-12-17 05:27:00,54.7,44.8,30.12,North,-999,0.0,0.0,69,0.00,,,-99.99,FreeWX-Wi 1.01,2014-12-17 10:27:00,
2014-12-17 05:32:00,54.5,44.6,30.12,North,-999,0.0,0.0,69,0.00,,,-99.99,FreeWX-Wi 1.01,2014-12-17 10:32:00,
2014-12-17 05:37:00,54.5,44.6,30.12,North,-999,0.0,0.0,69,0.00,,,-99.99,FreeWX-Wi 1.01,2014-12-17 10:37:00,
2014-12-17 05:42:00,54.3,44.1,30.12,North,-999,0.0,0.0,68,0.00,,,-99.99,FreeWX-Wi 1.01,2014-12-17 10:42:00,
2014-12-17 05:47:00,54.0,43.7,30.12,North,-999,0.0,0.0,68,0.00,,,-99.99,FreeWX-Wi 1.01,2014-12-17 10:47:00,
2014-12-17 05:52:00,53.6,43.3,30.12,North,-999,0.0,0.0,68,0.00,,,-99.99,FreeWX-Wi 1.01,2014-12-17 10:52:00,
2014-12-17 05:57:00,53.4,43.2,30.12,North,-999,0.0,0.0,68,0.00,,,-99.99,FreeWX-Wi 1.01,2014-12-17 10:57:00,
2014-12-17 06:02:00,53.2,43.0,30.12,North,-999,0.0,0.0,68,0.00,,,-99.99,FreeWX-Wi 1.01,2014-12-17 11:02:00,
2014-12-17 06:07:00,53.2,43.0,30.12,North,-999,0.0,0.0,68,0.00,,,-99.99,FreeWX-Wi 1.01,2014-12-17 11:07:00,
2014-12-17 06:12:00,53.1,42.8,30.15,North,-999,0.0,0.0,68,0.00,,,-99.99,FreeWX-Wi 1.01,2014-12-17 11:12:00,
2014-12-17 06:17:00,52.9,42.6,30.15,North,-999,0.0,0.0,68,0.00,,,-99.99,FreeWX-Wi 1.01,2014-12-17 11:17:00,
2014-12-17 06:22:00,52.7,42.1,30.15,North,-999,0.0,0.0,67,0.00,,,-99.99,FreeWX-Wi 1.01,2014-12-17 11:22:00,
2014-12-17 06:27:00,52.5,41.9,30.15,North,-999,0.0,0.0,67,0.00,,,-99.99,FreeWX-Wi 1.01,2014-12-17 11:27:00,
2014-12-17 06:32:00,52.3,41.7,30.15,North,-999,0.0,0.0,67,0.00,,,-99.99,FreeWX-Wi 1.01,2014-12-17 11:32:00,
2014-12-17 06:37:00,52.2,41.5,30.15,North,-999,0.0,0.0,67,0.00,,,-99.99,FreeWX-Wi 1.01,2014-12-17 11:37:00,
2014-12-17 06:42:00,52.0,41.4,30.15,North,-999,0.0,0.0,67,0.00,,,-99.99,FreeWX-Wi 1.01,2014-12-17 11:42:00,
2014-12-17 06:47:00,51.8,41.2,30.15,North,-999,0.0,0.0,67,0.00,,,-99.99,FreeWX-Wi 1.01,2014-12-17 11:47:00,
2014-12-17 06:52:00,51.6,40.6,30.15,North,-999,0.0,0.0,66,0.00,,,-99.99,FreeWX-Wi 1.01,2014-12-17 11:52:00,
2014-12-17 06:57:00,51.4,40.5,30.15,North,-999,0.0,0.0,66,0.00,,,-99.99,FreeWX-Wi 1.01,2014-12-17 11:57:00,
2014-12-17 07:02:00,51.4,40.5,30.15,North,-999,0.0,0.0,66,0.00,,,-99.99,FreeWX-Wi 1.01,2014-12-17 12:02:00,
2014-12-17 07:07:00,51.3,40.3,30.15,North,-999,0.0,0.0,66,0.00,,,-99.99,FreeWX-Wi 1.01,2014-12-17 12:07:00,
2014-12-17 07:12:00,51.3,40.3,30.15,North,-999,0.0,0.0,66,0.00,,,-99.99,FreeWX-Wi 1.01,2014-12-17 12:12:00,
2014-12-17 07:17:00,51.4,40.5,30.15,North,-999,0.0,0.0,66,0.00,,,-99.99,FreeWX-Wi 1.01,2014-12-17 12:17:00,
2014-12-17 07:22:00,51.4,40.5,30.15,North,-999,0.0,0.0,66,0.00,,,-99.99,FreeWX-Wi 1.01,2014-12-17 12:22:00,
2014-12-17 07:27:00,51.4,40.1,30.15,North,-999,0.0,0.0,65,0.00,,,-99.99,FreeWX-Wi 1.01,2014-12-17 12:27:00,
2014-12-17 07:32:00,51.3,39.9,30.15,North,-999,0.0,0.0,65,0.00,,,-99.99,FreeWX-Wi 1.01,2014-12-17 12:32:00,
2014-12-17 07:37:00,51.3,39.9,30.15,North,-999,0.0,0.0,65,0.00,,,-99.99,FreeWX-Wi 1.01,2014-12-17 12:37:00,
2014-12-17 07:42:00,51.1,39.7,30.18,North,-999,0.0,0.0,65,0.00,,,-99.99,FreeWX-Wi 1.01,2014-12-17 12:42:00,
2014-12-17 07:47:00,50.9,39.6,30.18,North,-999,0.0,0.0,65,0.00,,,-99.99,FreeWX-Wi 1.01,2014-12-17 12:47:00,
2014-12-17 07:52:00,50.9,39.6,30.18,North,-999,0.0,0.0,65,0.00,,,-99.99,FreeWX-Wi 1.01,2014-12-17 12:52:00,
2014-12-17 07:57:00,51.1,39.7,30.18,North,-999,0.0,0.0,65,0.00,,,-99.99,FreeWX-Wi 1.01,2014-12-17 12:57:00,
2014-12-17 08:02:00,51.1,39.7,30.18,North,-999,0.0,0.0,65,0.00,,,-99.99,FreeWX-Wi 1.01,2014-12-17 13:02:00,
2014-12-17 08:07:00,51.3,39.9,30.18,North,-999,0.0,0.0,65,0.00,,,-99.99,FreeWX-Wi 1.01,2014-12-17 13:07:00,
2014-12-17 08:12:00,51.4,40.1,30.18,North,-999,0.0,0.0,65,0.00,,,-99.99,FreeWX-Wi 1.01,2014-12-17 13:12:00,
2014-12-17 08:17:00,51.4,40.1,30.18,North,-999,0.0,0.0,65,0.00,,,-99.99,FreeWX-Wi 1.01,2014-12-17 13:17:00,
2014-12-17 08:23:00,51.6,40.3,30.18,North,-999,0.0,0.0,65,0.00,,,-99.99,FreeWX-Wi 1.01,2014-12-17 13:23:00,
2014-12-17 08:28:00,51.8,40.5,30.18,North,-999,0.0,0.0,65,0.00,,,-99.99,FreeWX-Wi 1.01,2014-12-17 13:28:00,
2014-12-17 08:33:00,52.0,40.6,30.18,North,-999,0.0,0.0,65,0.00,,,-99.99,FreeWX-Wi 1.01,2014-12-17 13:33:00,
2014-12-17 08:38:00,52.2,40.8,30.18,North,-999,0.0,0.0,65,0.00,,,-99.99,FreeWX-Wi 1.01,2014-12-17 13:38:00,
2014-12-17 08:43:00,52.2,40.8,30.18,North,-999,0.0,0.0,65,0.00,,,-99.99,FreeWX-Wi 1.01,2014-12-17 13:43:00,
2014-12-17 08:48:00,52.3,41.0,30.18,North,-999,0.0,0.0,65,0.00,,,-99.99,FreeWX-Wi 1.01,2014-12-17 13:48:00,
2014-12-17 08:53:00,52.5,41.2,30.18,North,-999,0.0,0.0,65,0.00,,,-99.99,FreeWX-Wi 1.01,2014-12-17 13:53:00,
2014-12-17 08:58:00,52.7,41.7,30.18,North,-999,0.0,0.0,66,0.00,,,-99.99,FreeWX-Wi 1.01,2014-12-17 13:58:00,
2014-12-17 09:03:00,52.7,41.7,30.18,North,-999,0.0,0.0,66,0.00,,,-99.99,FreeWX-Wi 1.01,2014-12-17 14:03:00,
2014-12-17 09:08:00,52.9,41.9,30.18,North,-999,0.0,0.0,66,0.00,,,-99.99,FreeWX-Wi 1.01,2014-12-17 14:08:00,
2014-12-17 09:13:00,53.1,42.1,30.18,North,-999,0.0,0.0,66,0.00,,,-99.99,FreeWX-Wi 1.01,2014-12-17 14:13:00,
2014-12-17 09:18:00,53.1,42.1,30.18,North,-999,0.0,3.1,66,0.00,,,-99.99,FreeWX-Wi 1.01,2014-12-17 14:18:00,
2014-12-17 09:23:00,53.2,42.3,30.18,North,-999,0.0,3.1,66,0.00,,,-99.99,FreeWX-Wi 1.01,2014-12-17 14:23:00,
2014-12-17 09:28:00,53.4,42.3,30.18,North,-999,0.0,0.0,66,0.00,,,-99.99,FreeWX-Wi 1.01,2014-12-17 14:28:00,
2014-12-17 09:33:00,53.8,42.6,30.18,North,-999,0.0,4.0,66,0.00,,,-99.99,FreeWX-Wi 1.01,2014-12-17 14:33:00,
2014-12-17 09:38:00,54.0,42.8,30.18,North,-999,0.0,4.0,66,0.00,,,-99.99,FreeWX-Wi 1.01,2014-12-17 14:38:00,
2014-12-17 09:43:00,54.1,43.0,30.18,North,10,1.0,3.6,66,0.00,,,-99.99,FreeWX-Wi 1.01,2014-12-17 14:43:00,
2014-12-17 09:48:00,54.3,43.2,30.18,North,6,1.0,4.0,66,0.00,,,-99.99,FreeWX-Wi 1.01,2014-12-17 14:48:00,
2014-12-17 09:53:00,54.5,43.3,30.18,NNE,12,1.0,3.1,66,0.00,,,-99.99,FreeWX-Wi 1.01,2014-12-17 14:53:00,
2014-12-17 09:58:00,54.7,43.2,30.21,NNE,12,2.0,4.0,65,0.00,,,-99.99,FreeWX-Wi 1.01,2014-12-17 14:58:00,
2014-12-17 10:03:00,54.9,43.3,30.21,NNE,21,1.0,3.6,65,0.00,,,-99.99,FreeWX-Wi 1.01,2014-12-17 15:03:00,
2014-12-17 10:08:00,55.2,43.3,30.21,North,6,1.0,4.0,64,0.00,,,-99.99,FreeWX-Wi 1.01,2014-12-17 15:08:00,
2014-12-17 10:13:00,55.4,43.0,30.18,NNE,12,1.0,2.7,63,0.00,,,-99.99,FreeWX-Wi 1.01,2014-12-17 15:13:00,
2014-12-17 10:18:00,55.6,43.2,30.18,North,350,1.0,3.6,63,0.00,,,-99.99,FreeWX-Wi 1.01,2014-12-17 15:18:00,
2014-12-17 10:23:00,55.9,43.2,30.18,North,358,1.0,4.0,62,0.00,,,-99.99,FreeWX-Wi 1.01,2014-12-17 15:23:00,
2014-12-17 10:28:00,56.1,43.3,30.18,North,5,1.0,4.0,62,0.00,,,-99.99,FreeWX-Wi 1.01,2014-12-17 15:28:00,
2014-12-17 10:33:00,56.3,43.0,30.18,North,8,1.0,5.4,61,0.00,,,-99.99,FreeWX-Wi 1.01,2014-12-17 15:33:00,
2014-12-17 10:38:00,56.5,42.8,30.18,NNE,16,1.0,4.0,60,0.00,,,-99.99,FreeWX-Wi 1.01,2014-12-17 15:38:00,
2014-12-17 10:43:00,56.8,42.6,30.18,NE,45,1.0,3.1,59,0.00,,,-99.99,FreeWX-Wi 1.01,2014-12-17 15:43:00,
2014-12-17 10:48:00,57.0,42.4,30.18,NE,41,1.0,3.6,58,0.00,,,-99.99,FreeWX-Wi 1.01,2014-12-17 15:48:00,
2014-12-17 10:53:00,57.2,41.7,30.18,NNE,29,1.0,3.6,56,0.00,,,-99.99,FreeWX-Wi 1.01,2014-12-17 15:53:00,
2014-12-17 10:58:00,57.4,41.4,30.18,North,3,1.0,3.1,55,0.00,,,-99.99,FreeWX-Wi 1.01,2014-12-17 15:58:00,
2014-12-17 11:03:00,57.6,41.0,30.18,NNW,347,1.0,3.6,54,0.00,,,-99.99,FreeWX-Wi 1.01,2014-12-17 16:03:00,
2014-12-17 11:08:00,57.9,40.8,30.18,NNW,337,1.0,3.1,53,0.00,,,-99.99,FreeWX-Wi 1.01,2014-12-17 16:08:00,
2014-12-17 11:13:00,57.9,40.5,30.18,WNW,300,1.0,0.0,52,0.00,,,-99.99,FreeWX-Wi 1.01,2014-12-17 16:13:00,
2014-12-17 11:18:00,58.1,40.6,30.18,WNW,291,1.0,3.1,52,0.00,,,-99.99,FreeWX-Wi 1.01,2014-12-17 16:18:00,
2014-12-17 11:23:00,58.5,39.9,30.18,WNW,300,1.0,3.6,50,0.00,,,-99.99,FreeWX-Wi 1.01,2014-12-17 16:23:00,
2014-12-17 11:28:00,58.6,39.6,30.18,NW,314,1.0,3.1,49,0.00,,,-99.99,FreeWX-Wi 1.01,2014-12-17 16:28:00,
2014-12-17 11:33:00,58.8,39.7,30.18,NNW,333,1.0,4.0,49,0.00,,,-99.99,FreeWX-Wi 1.01,2014-12-17 16:33:00,
2014-12-17 11:38:00,59.2,39.0,30.18,North,349,1.0,4.0,47,0.00,,,-99.99,FreeWX-Wi 1.01,2014-12-17 16:38:00,
2014-12-17 11:43:00,59.4,38.7,30.15,NNW,347,1.0,3.1,46,0.00,,,-99.99,FreeWX-Wi 1.01,2014-12-17 16:43:00,
2014-12-17 11:48:00,59.4,37.9,30.15,NNW,337,2.0,4.0,45,0.00,,,-99.99,FreeWX-Wi 1.01,2014-12-17 16:48:00,
2014-12-17 11:53:00,59.5,38.1,30.15,NNW,333,2.0,5.4,45,0.00,,,-99.99,FreeWX-Wi 1.01,2014-12-17 16:53:00,
2014-12-17 11:58:00,59.5,37.6,30.15,NNW,334,2.0,4.5,44,0.00,,,-99.99,FreeWX-Wi 1.01,2014-12-17 16:58:00,
2014-12-17 12:03:00,59.9,37.4,30.15,NW,321,2.0,5.4,43,0.00,,,-99.99,FreeWX-Wi 1.01,2014-12-17 17:03:00,
2014-12-17 12:08:00,60.3,37.0,30.15,WNW,282,2.0,4.0,42,0.00,,,-99.99,FreeWX-Wi 1.01,2014-12-17 17:08:00,
2014-12-17 12:13:00,60.6,36.9,30.15,West,262,2.0,3.1,41,0.00,,,-99.99,FreeWX-Wi 1.01,2014-12-17 17:13:00,
2014-12-17 12:18:00,60.6,36.1,30.15,WSW,250,2.0,3.6,40,0.00,,,-99.99,FreeWX-Wi 1.01,2014-12-17 17:18:00,
2014-12-17 12:23:00,60.8,35.6,30.15,SW,229,2.0,4.0,39,0.00,,,-99.99,FreeWX-Wi 1.01,2014-12-17 17:23:00,
2014-12-17 12:28:00,61.0,35.2,30.15,SW,227,2.0,4.0,38,0.00,,,-99.99,FreeWX-Wi 1.01,2014-12-17 17:28:00,
2014-12-17 12:33:00,61.2,34.7,30.15,WSW,246,2.0,3.1,37,0.00,,,-99.99,FreeWX-Wi 1.01,2014-12-17 17:33:00,
2014-12-17 12:38:00,61.3,34.2,30.15,West,260,1.0,4.5,36,0.00,,,-99.99,FreeWX-Wi 1.01,2014-12-17 17:38:00,
2014-12-17 12:43:00,61.7,34.5,30.12,West,270,2.0,4.0,36,0.00,,,-99.99,FreeWX-Wi 1.01,2014-12-17 17:43:00,
2014-12-17 12:48:00,61.7,33.8,30.12,West,267,2.0,6.3,35,0.00,,,-99.99,FreeWX-Wi 1.01,2014-12-17 17:48:00,
2014-12-17 12:53:00,61.9,34.0,30.12,West,279,2.0,5.8,35,0.00,,,-99.99,FreeWX-Wi 1.01,2014-12-17 17:53:00,
2014-12-17 12:58:00,62.1,33.4,30.12,WNW,289,2.0,6.3,34,0.00,,,-99.99,FreeWX-Wi 1.01,2014-12-17 17:58:00,
2014-12-17 13:03:00,62.2,33.4,30.12,WNW,285,2.0,4.9,34,0.00,,,-99.99,FreeWX-Wi 1.01,2014-12-17 18:03:00,
2014-12-17 13:08:00,62.6,33.1,30.12,West,280,2.0,3.6,33,0.00,,,-99.99,FreeWX-Wi 1.01,2014-12-17 18:08:00,
2014-12-17 13:13:00,63.0,32.7,30.12,West,268,2.0,5.4,32,0.00,,,-99.99,FreeWX-Wi 1.01,2014-12-17 18:13:00,
2014-12-17 13:18:00,63.1,32.0,30.12,West,266,2.0,6.3,31,0.00,,,-99.99,FreeWX-Wi 1.01,2014-12-17 18:18:00,
2014-12-17 13:23:00,63.3,30.6,30.12,West,270,2.0,5.4,29,0.00,,,-99.99,FreeWX-Wi 1.01,2014-12-17 18:23:00,
2014-12-17 13:28:00,63.5,29.8,30.09,WSW,253,2.0,5.8,28,0.00,,,-99.99,FreeWX-Wi 1.01,2014-12-17 18:28:00,
2014-12-17 13:33:00,63.9,30.2,30.09,WSW,245,2.0,4.0,28,0.00,,,-99.99,FreeWX-Wi 1.01,2014-12-17 18:33:00,
2014-12-17 13:38:00,64.0,30.2,30.09,WSW,244,2.0,6.3,28,0.00,,,-99.99,FreeWX-Wi 1.01,2014-12-17 18:38:00,
2014-12-17 13:43:00,64.2,28.6,30.09,West,259,2.0,6.3,26,0.00,,,-99.99,FreeWX-Wi 1.01,2014-12-17 18:43:00,
2014-12-17 13:48:00,64.2,28.6,30.09,West,263,2.0,4.0,26,0.00,,,-99.99,FreeWX-Wi 1.01,2014-12-17 18:48:00,
2014-12-17 13:53:00,64.2,27.7,30.09,West,264,2.0,5.8,25,0.00,,,-99.99,FreeWX-Wi 1.01,2014-12-17 18:53:00,
2014-12-17 13:58:00,64.4,26.8,30.09,West,269,2.0,6.3,24,0.00,,,-99.99,FreeWX-Wi 1.01,2014-12-17 18:58:00,
2014-12-17 14:03:00,64.4,25.9,30.09,West,281,2.0,4.0,23,0.00,,,-99.99,FreeWX-Wi 1.01,2014-12-17 19:03:00,
2014-12-17 14:08:00,64.6,22.6,30.09,WNW,288,2.0,4.0,20,0.00,,,-99.99,FreeWX-Wi 1.01,2014-12-17 19:08:00,
2014-12-17 14:13:00,64.8,20.3,30.09,WNW,284,2.0,4.9,18,0.00,,,-99.99,FreeWX-Wi 1.01,2014-12-17 19:13:00,
2014-12-17 14:18:00,64.8,16.0,30.09,WNW,285,2.0,8.7,15,0.00,,,-99.99,FreeWX-Wi 1.01,2014-12-17 19:18:00,
2014-12-17 14:23:00,64.9,12.9,30.09,WNW,288,2.0,7.2,13,0.00,,,-99.99,FreeWX-Wi 1.01,2014-12-17 19:23:00,
2014-12-17 19:09:00,59.9,7.2,30.09,North,-999,0.0,0.0,12,0.00,,,-99.99,FreeWX-Wi 1.01,2014-12-18 00:09:00,
2014-12-17 19:14:00,59.7,7.0,30.09,North,-999,0.0,0.0,12,0.00,,,-99.99,FreeWX-Wi 1.01,2014-12-18 00:14:00,
2014-12-17 19:19:00,59.5,10.4,30.09,North,-999,0.0,0.0,14,0.00,,,-99.99,FreeWX-Wi 1.01,2014-12-18 00:19:00,
2014-12-17 19:24:00,59.4,14.5,30.12,North,-999,0.0,0.0,17,0.00,,,-99.99,FreeWX-Wi 1.01,2014-12-18 00:24:00,
2014-12-17 19:29:00,59.2,14.4,30.12,North,-999,0.0,0.0,17,0.00,,,-99.99,FreeWX-Wi 1.01,2014-12-18 00:29:00,
2014-12-17 19:34:00,59.2,16.9,30.12,North,-999,0.0,0.0,19,0.00,,,-99.99,FreeWX-Wi 1.01,2014-12-18 00:34:00,
2014-12-17 19:39:00,59.0,20.3,30.12,North,-999,0.0,0.0,22,0.00,,,-99.99,FreeWX-Wi 1.01,2014-12-18 00:39:00,
2014-12-17 19:45:00,58.8,20.1,30.12,North,-999,0.0,0.0,22,0.00,,,-99.99,FreeWX-Wi 1.01,2014-12-18 00:45:00,
2014-12-17 19:50:00,58.6,21.9,30.12,North,-999,0.0,0.0,24,0.00,,,-99.99,FreeWX-Wi 1.01,2014-12-18 00:50:00,
2014-12-17 19:55:00,58.5,22.8,30.12,North,-999,0.0,0.0,25,0.00,,,-99.99,FreeWX-Wi 1.01,2014-12-18 00:55:00,
2014-12-17 20:00:00,58.5,22.8,30.12,North,-999,0.0,0.0,25,0.00,,,-99.99,FreeWX-Wi 1.01,2014-12-18 01:00:00,
2014-12-17 20:05:00,58.3,22.6,30.12,North,-999,0.0,0.0,25,0.00,,,-99.99,FreeWX-Wi 1.01,2014-12-18 01:05:00,
2014-12-17 20:10:00,58.3,23.5,30.12,North,-999,0.0,0.0,26,0.00,,,-99.99,FreeWX-Wi 1.01,2014-12-18 01:10:00,
2014-12-17 20:15:00,58.1,23.4,30.12,North,-999,0.0,0.0,26,0.00,,,-99.99,FreeWX-Wi 1.01,2014-12-18 01:15:00,
2014-12-17 20:20:00,58.1,23.4,30.12,North,-999,0.0,0.0,26,0.00,,,-99.99,FreeWX-Wi 1.01,2014-12-18 01:20:00,
2014-12-17 20:25:00,57.9,23.2,30.15,North,-999,0.0,2.7,26,0.00,,,-99.99,FreeWX-Wi 1.01,2014-12-18 01:25:00,
2014-12-17 20:30:00,57.7,24.1,30.15,North,-999,0.0,2.7,27,0.00,,,-99.99,FreeWX-Wi 1.01,2014-12-18 01:30:00,
2014-12-17 20:35:00,57.7,24.1,30.15,North,-999,0.0,0.0,27,0.00,,,-99.99,FreeWX-Wi 1.01,2014-12-18 01:35:00,
2014-12-17 20:40:00,57.6,24.6,30.15,North,-999,0.0,0.0,28,0.00,,,-99.99,FreeWX-Wi 1.01,2014-12-18 01:40:00,
2014-12-17 20:45:00,57.6,24.6,30.15,North,-999,0.0,3.1,28,0.00,,,-99.99,FreeWX-Wi 1.01,2014-12-18 01:45:00,
2014-12-17 20:50:00,57.4,25.3,30.15,North,-999,0.0,2.7,29,0.00,,,-99.99,FreeWX-Wi 1.01,2014-12-18 01:50:00,
2014-12-17 20:55:00,57.2,25.2,30.15,North,-999,0.0,3.6,29,0.00,,,-99.99,FreeWX-Wi 1.01,2014-12-18 01:55:00,
2014-12-17 21:00:00,57.2,25.2,30.15,NW,310,1.0,3.6,29,0.00,,,-99.99,FreeWX-Wi 1.01,2014-12-18 02:00:00,
2014-12-17 21:05:00,57.0,25.9,30.15,NW,313,1.0,3.1,30,0.00,,,-99.99,FreeWX-Wi 1.01,2014-12-18 02:05:00,
2014-12-17 21:10:00,56.8,26.6,30.15,NW,317,1.0,3.6,31,0.00,,,-99.99,FreeWX-Wi 1.01,2014-12-18 02:10:00,
2014-12-17 21:15:00,56.7,27.1,30.15,NW,319,2.0,5.4,32,0.00,,,-99.99,FreeWX-Wi 1.01,2014-12-18 02:15:00,
2014-12-17 21:20:00,56.5,27.0,30.15,NW,322,2.0,5.4,32,0.00,,,-99.99,FreeWX-Wi 1.01,2014-12-18 02:20:00,
2014-12-17 21:25:00,56.3,27.5,30.15,NW,323,2.0,6.3,33,0.00,,,-99.99,FreeWX-Wi 1.01,2014-12-18 02:25:00,
2014-12-17 21:30:00,56.3,28.2,30.15,NW,321,2.0,4.0,34,0.00,,,-99.99,FreeWX-Wi 1.01,2014-12-18 02:30:00,
2014-12-17 21:35:00,56.1,28.2,30.15,NW,322,2.0,4.0,34,0.00,,,-99.99,FreeWX-Wi 1.01,2014-12-18 02:35:00,
2014-12-17 21:40:00,55.9,28.8,30.15,NW,324,2.0,0.0,35,0.00,,,-99.99,FreeWX-Wi 1.01,2014-12-18 02:40:00,
2014-12-17 21:45:00,55.8,28.6,30.15,NW,325,1.0,0.0,35,0.00,,,-99.99,FreeWX-Wi 1.01,2014-12-18 02:45:00,
2014-12-17 21:50:00,55.8,28.6,30.15,North,-999,0.0,0.0,35,0.00,,,-99.99,FreeWX-Wi 1.01,2014-12-18 02:50:00,
2014-12-17 21:55:00,55.6,28.4,30.15,North,-999,0.0,0.0,35,0.00,,,-99.99,FreeWX-Wi 1.01,2014-12-18 02:55:00,
2014-12-17 22:00:00,55.4,28.2,30.15,North,-999,0.0,0.0,35,0.00,,,-99.99,FreeWX-Wi 1.01,2014-12-18 03:00:00,
2014-12-17 22:05:00,55.2,28.8,30.15,North,-999,0.0,0.0,36,0.00,,,-99.99,FreeWX-Wi 1.01,2014-12-18 03:05:00,
2014-12-17 22:10:00,55.0,28.6,30.15,North,-999,0.0,0.0,36,0.00,,,-99.99,FreeWX-Wi 1.01,2014-12-18 03:10:00,
2014-12-17 22:15:00,54.9,28.4,30.15,North,-999,0.0,0.0,36,0.00,,,-99.99,FreeWX-Wi 1.01,2014-12-18 03:15:00,
2014-12-17 22:20:00,54.7,28.2,30.15,North,-999,0.0,0.0,36,0.00,,,-99.99,FreeWX-Wi 1.01,2014-12-18 03:20:00,
2014-12-17 22:25:00,54.5,28.0,30.15,North,-999,0.0,0.0,36,0.00,,,-99.99,FreeWX-Wi 1.01,2014-12-18 03:25:00,
2014-12-17 22:30:00,54.3,27.9,30.15,North,-999,0.0,0.0,36,0.00,,,-99.99,FreeWX-Wi 1.01,2014-12-18 03:30:00,
2014-12-17 22:35:00,54.1,27.9,30.15,North,-999,0.0,0.0,36,0.00,,,-99.99,FreeWX-Wi 1.01,2014-12-18 03:35:00,
2014-12-17 22:40:00,54.0,27.7,30.15,North,-999,0.0,0.0,36,0.00,,,-99.99,FreeWX-Wi 1.01,2014-12-18 03:40:00,
2014-12-17 22:45:00,53.8,28.0,30.15,North,-999,0.0,0.0,37,0.00,,,-99.99,FreeWX-Wi 1.01,2014-12-18 03:45:00,
2014-12-17 22:50:00,53.6,28.0,30.15,North,-999,0.0,0.0,37,0.00,,,-99.99,FreeWX-Wi 1.01,2014-12-18 03:50:00,
2014-12-17 22:55:00,53.6,28.0,30.15,North,-999,0.0,0.0,37,0.00,,,-99.99,FreeWX-Wi 1.01,2014-12-18 03:55:00,
2014-12-17 23:00:00,53.4,27.9,30.15,North,-999,0.0,0.0,37,0.00,,,-99.99,FreeWX-Wi 1.01,2014-12-18 04:00:00,
2014-12-17 23:05:00,53.2,28.2,30.15,North,-999,0.0,0.0,38,0.00,,,-99.99,FreeWX-Wi 1.01,2014-12-18 04:05:00,
2014-12-17 23:10:00,53.1,28.2,30.15,North,-999,0.0,0.0,38,0.00,,,-99.99,FreeWX-Wi 1.01,2014-12-18 04:10:00,
2014-12-17 23:15:00,53.1,28.2,30.15,North,-999,0.0,0.0,38,0.00,,,-99.99,FreeWX-Wi 1.01,2014-12-18 04:15:00,
2014-12-17 23:20:00,52.9,28.0,30.15,North,-999,0.0,0.0,38,0.00,,,-99.99,FreeWX-Wi 1.01,2014-12-18 04:20:00,
2014-12-17 23:25:00,52.7,27.9,30.15,North,-999,0.0,0.0,38,0.00,,,-99.99,FreeWX-Wi 1.01,2014-12-18 04:25:00,
2014-12-17 23:30:00,52.5,27.7,30.15,North,-999,0.0,0.0,38,0.00,,,-99.99,FreeWX-Wi 1.01,2014-12-18 04:30:00,
2014-12-17 23:35:00,52.3,27.5,30.15,North,-999,0.0,0.0,38,0.00,,,-99.99,FreeWX-Wi 1.01,2014-12-18 04:35:00,
2014-12-17 23:45:00,52.0,27.9,30.12,North,-999,0.0,0.0,39,0.00,,,-99.99,FreeWX-Wi 1.01,2014-12-18 04:45:00,
2014-12-17 23:50:00,51.8,27.7,30.12,North,-999,0.0,0.0,39,0.00,,,-99.99,FreeWX-Wi 1.01,2014-12-18 04:50:00,